This is the latest recevied weather packets stored in our database for station/object KD0RII. If no packets are shown the sender has not sent any weather packets the latest 10 day(s).
| Time | Temp. | Humidity | Pressure | Rain* | Wind** | Luminosity | Snow |
|---|---|---|---|---|---|---|---|
| 1777654637 | 20° C | 38% | 1021.1 hPa | 0 mm | - | 726 W/m² | - |
| 1777654335 | 20° C | 38% | 1021 hPa | 0 mm | - | 717 W/m² | - |
| 1777654033 | 20.56° C | 37% | 1020.9 hPa | 0 mm | - | 707 W/m² | - |
| 1777653730 | 20° C | 36% | 1021 hPa | 0 mm | - | 694 W/m² | - |
| 1777653425 | 20.56° C | 36% | 1020.9 hPa | 0 mm | - | 685 W/m² | - |
| 1777653123 | 20° C | 37% | 1021 hPa | 0 mm | - | 676 W/m² | - |
| 1777652819 | 20° C | 35% | 1020.9 hPa | 0 mm | - | 663 W/m² | - |
| 1777652515 | 19.44° C | 39% | 1020.8 hPa | 0 mm | - | 651 W/m² | - |
| 1777652213 | 19.44° C | 40% | 1020.8 hPa | 0 mm | - | 638 W/m² | - |
| 1777651910 | 19.44° C | 36% | 1020.9 hPa | 0 mm | - | 629 W/m² | - |
| 1777651606 | 18.89° C | 41% | 1020.9 hPa | 0 mm | - | 611 W/m² | - |
| 1777651304 | 18.33° C | 38% | 1020.7 hPa | 0 mm | - | 606 W/m² | - |
| 1777651000 | 18.33° C | 39% | 1020.9 hPa | 0 mm | - | 591 W/m² | - |
| 1777650697 | 18.89° C | 42% | 1020.7 hPa | 0 mm | - | 581 W/m² | - |
| 1777650394 | 18.89° C | 38% | 1020.8 hPa | 0 mm | - | 565 W/m² | - |
| 1777650092 | 18.33° C | 38% | 1020.9 hPa | 0 mm | - | 553 W/m² | - |
| 1777649789 | 18.89° C | 42% | 1020.9 hPa | 0 mm | - | 540 W/m² | - |
| 1777649486 | 18.89° C | 41% | 1020.9 hPa | 0 mm | - | 525 W/m² | - |
| 1777649182 | 18.33° C | 40% | 1020.9 hPa | 0 mm | - | 507 W/m² | - |
| 1777648879 | 17.78° C | 42% | 1020.8 hPa | 0 mm | - | 493 W/m² | - |
| 1777648273 | 17.78° C | 42% | 1020.7 hPa | 0 mm | - | 460 W/m² | - |
| 1777647969 | 17.78° C | 46% | 1020.8 hPa | 0 mm | - | 445 W/m² | - |
| 1777647665 | 17.22° C | 44% | 1020.6 hPa | 0 mm | - | 431 W/m² | - |
| 1777647361 | 17.22° C | 44% | 1020.8 hPa | 0 mm | - | 417 W/m² | - |
| 1777647059 | 17.22° C | 44% | 1020.7 hPa | 0 mm | - | 403 W/m² | - |
* Rain latest hour (hover to see other rain measurements)
** Current wind speed in m/s (hover to see current wind gust speed)